Location: Brookfield Center
(41.2406°N, 80.5579°W)
Time: 21:28:16
(UTC+00:00)

NOSS 2-2 (C) - Pass Details

Date: 18 January 2020
Orbit: 484 x 1725 km, 63.3° (Epoch: 03 February)

Event Time Altitude Azimuth Distance (km) Brightness Sun altitude
Exits shadow 10:50:16 54° 200° (SSW) 599 3.3 -21.2°
Maximum altitude 10:51:01 81° 123° (ESE) 503 3.1 -21.0°
Drops below altitude 10° 10:54:53 10° 37° (NE) 1,797 6.3 -20.3°
Sets 10:57:14 0° 36° (NE) 2,801 7.3 -19.9°
